Ройал-Лимингтон-Спа

Великобритания     52°17′16″N   1°32′24″W
темп.,
°C
ветер,
м/с
пор.,
м/с
влажн.,
%
обл.,
%
осадки,
мм/ч
давл.,
гПа
погр.,
м
17 апреля, сб
сб1701:000в22881 0.0 103111
04:00−1св11900 0.0 103110
07:000всв11875 0.0 103116
10:00+7всв236729 0.0 1030678
13:00+10всв225088 0.0 10291273
16:00+11всв22496 0.0 10281351
19:00+8в22699 0.0 102730
22:00+3вюв338552 0.0 102835
18 апреля, вс
вс1801:00+1юв2281100 0.0 102715
04:000вюв118450 0.0 102610
07:00+2всв0081100 0.0 102610
10:00+8в1165100 0.0 1026411
13:00+11св1156100 0.0 10251161
16:00+12св115262 0.0 10231423
19:00+10вюв226898 0.0 102319
22:00+4вюв22715 0.0 102418
19 апреля, пн
пн1901:00+2вюв22765 0.0 102411
04:00+1вюв11865 0.0 102310
07:00+3в11853 0.0 102318
10:00+9вюв22715 0.0 1022505
13:00+12юв226194 0.0 10211416
16:00+12вюв2269100 0.0 1019588
19:00+10ююв1175100 0.1 101914
22:00+9вюв1173100 0.0 101910
20 апреля, вт
вт2001:00+8всв1177100 0.0 101910
04:00+8св1182100 0.0 101910
07:00+8всв1184100 0.0 101910
10:00+9ссв1279100 0.0 1020159
13:00+11ссз2270100 0.1 1020427
16:00+12с2366100 0.1 1020797
19:00+11св1175100 0.1 102024
22:00+7ссз358488 0.0 102284
21 апреля, ср
ср2101:00+6с379422 0.0 1022152
04:00+7св3790100 0.0 1023273
07:00+7св3793100 0.0 1024401
10:00+8всв367177 0.0 1026616
13:00+12всв445738 0.0 10261373
16:00+11всв3467100 0.0 1026503
19:00+10в367375 0.0 1027322
22:00+4вюв36925 0.0 1029104